Regional Weather Roundup
Issued by NWS Sterling, VA

Home | Current Version | Previous Version | Text Only | Print | Product List | Glossary Off
Versions: 1 2 3 4 5 6 7 8 9 10 11 12 13 14 15 16 17 18 19 20 21 22 23 24 25 26 27 28 29 30 31 32 33 34 35 36 37 38 39 40 41 42 43 44 45 46 47 48 49 50

000
ASUS41 KLWX 241610
RWRLWX

REGIONAL WEATHER ROUNDUP
NATIONAL WEATHER SERVICE BALTIMORE MD/WASHINGTON DC
1200 PM EDT THU JUL 24 2014

Note: "FAIR" indicates few or no clouds below 12,000 feet
with no significant weather and/or obstructions to visibility.
 TC=TEMPERATURE CELSIUS

 * =Non NWS site. Station does not report precipitation (e.g. rain,
    snow, etc.), thunder, or fog.

DCZ001-MDZ009-015-VAZ040>042-051-053>054-241700-
WASHINGTON METRO
  /KDAA//-FT BELVOIR

CITY           SKY/WX    TMP DP  RH WIND       PRES   REMARKS
WASHINGTON NAT PTSUNNY   77  62  59 N8        29.93S
DULLES         CLOUDY    76  61  59 N8        29.94S
QUANTICO       CLOUDY    72  66  81 N7        29.93S
COLLEGE PARK*  CLOUDY    73  64  73 N5        29.92F
LEESBURG*      CLOUDY    73  64  73 NE8       29.95S
MANASSAS*      CLOUDY    73  66  78 N7        29.94R
GAITHERSBURG*  CLOUDY    72  63  73 N3        29.98S

$$

MDZ006>007-011-014-241700-
BALTIMORE METRO

CITY           SKY/WX    TMP DP  RH WIND       PRES   REMARKS
BWI AIRPORT    CLOUDY    73  62  68 N7        29.92S
MD SCIENCE CTR   N/A     73  63  70 MISG      29.93R
MARTIN STATE   PTSUNNY   73  66  78 CALM      29.94R
ANNAPOLIS      CLOUDY    74  64  71 N7        29.92S
FORT MEADE*    CLOUDY    72  63  73 N5        29.95S

$$

MDZ012-015-019>023-241700-
MARYLAND EASTERN SHORE

CITY           SKY/WX    TMP DP  RH WIND       PRES   REMARKS
OCEAN CITY     LGT RAIN  74  70  87 NE5       29.89F
SALISBURY      NOT AVBL
BAY BRIDGE AP*   N/A     73  64  73 N8        29.92R
CAMBRIDGE*     CLOUDY    77  68  73 N6        29.90S
EASTON*        CLOUDY    75  66  73 N7        29.95R

$$

MDZ017>025-241700-
SOUTHERN MARYLAND

CITY           SKY/WX    TMP DP  RH WIND       PRES   REMARKS
PATUXENT RIVER CLOUDY    75  67  76 NE6       29.90S
ST INIGOES     CLOUDY    75  67  76 NE6       29.89F
LEONARDTOWN*   CLOUDY    72  68  88 CALM      29.92S

$$

MDZ003>005-241700-
NORTH CENTRAL MARYLAND

CITY           SKY/WX    TMP DP  RH WIND       PRES   REMARKS
FREDERICK*     PTSUNNY   75  66  73 NE6       29.97S
HAGERSTOWN APT PTSUNNY   77  58  51 N9        29.95F
WESTMINSTER*   MOSUNNY   73  64  73 N6        29.96R

$$

MDZ501>502-241700-
WESTERN MARYLAND

CITY           SKY/WX    TMP DP  RH WIND       PRES   REMARKS
OAKLAND*       CLOUDY    61  59  94 NW3       30.06R
CUMBERLAND*    PTSUNNY   77  59  53 CALM      30.01S

$$

VAZ025>031-241700-
SHENANDOAH VALLEY

CITY           SKY/WX    TMP DP  RH WIND       PRES   REMARKS
WINCHESTER*    CLOUDY    72  63  73 CALM      29.97R
STAUNTON*      PTSUNNY   75  65  71 NE14      29.98S

$$

WVZ021-048>050-054>055-241700-
EASTERN WEST VIRGINIA PANHANDLE

CITY           SKY/WX    TMP DP  RH WIND       PRES   REMARKS
MARTINSBURG    CLOUDY    75  59  57 N6        29.96S
PETERSBURG*    LGT RAIN  65  58  77 CALM      29.99S

$$

VAZ036>039-050-241700-
CENTRAL FOOTHILLS

CITY           SKY/WX    TMP DP  RH WIND       PRES   REMARKS
CHARLOTTESVILL CLOUDY    74  67  78 NE13      29.93S
ORANGE*        LGT RAIN  70  68  94 N7        29.96S

$$

VAZ055>057-241700-
NORTH AND CENTRAL PIEDMONT

CITY           SKY/WX    TMP DP  RH WIND       PRES   REMARKS
FREDERICKSBRG* CLOUDY    76  69  80 N6        29.91S
STAFFORD*      CLOUDY    73  70  90 N8        29.97S

$$

NCZ024-NYZ072-PAZ021-071-VAZ022-071-241700-
OTHER REGIONAL OBSERVATIONS

CITY           SKY/WX    TMP DP  RH WIND       PRES   REMARKS
NEW YORK CITY  CLOUDY    75  62  64 VRB6      29.90S
PHILADELPHIA   CLOUDY    76  60  57 NW9       29.90S
PITTSBURGH     PTSUNNY   71  54  54 N9G20     30.03R
ROANOKE        PTSUNNY   82  64  54 CALM      29.95F
RICHMOND       LGT RAIN  79  71  76 W3        29.90F
RALEIGH        PTSUNNY   81  71  71 E5        29.92F

$$

ANZ530>537-241700-
MARINE OBSERVATIONS

STATION/POSITION TIME  TEMP    WIND        PRES
                       AIR SEA DIR/SP/G
                 (UTC) (F)     (DEG/KT/KT) (MB)
THOMAS PT LIGHT  1600   73 79  360/ 11/ 13 1013.4R
BALT KEY BRIDGE  1600   73     330/  6/  7 1013.1S
COVE POINT       1600   74      70/ 10/ 12 1012.3F
LEWISETTA        1600   75 81   50/  6/ 10 1012.3S
SOLOMONS ISLAND  1600      81                N/A
PINEY POINT      1600           80/  4/  5   N/A

$$



USA.gov is the U.S. government's official web portal to all federal, state and local government web resources and services.